DELTA 1 DEB

Satellite information

Favourite Embed

Satellite Type and Status

DEBRISIN ORBIT

Key statistics

Satellite DELTA 1 DEB at a glance.

Uptime

18035

Days in orbit

Revolutions

≈ 12.5

Per day

Orbit

SSO

Sun Synchronous Orbit

Inclination

101.7

Latest

Satellite identification and parameters

Extended collection of information and parameters for DELTA 1 DEB.

Object identification

Identified? True

Debris? True

Object name: DELTA 1 DEB

International designator: 1976-077CY

Object number (NORAD): 10870

Object ID (CCSDS): 10870

Country: UNITED STATES OF AMERICA (US)

Current information (Y/N): Y

RCS size: SMALL

Orbital parameters

Period: 115.312 minutes

Inclination: 101.7175 deg

SMA: 7847.692 km

Apoapsis: 1476.9 km

Periapsis: 1462.215 km

RAAN: 328.7831 deg

Eccentricy: 0.00093565

Argument of periapsis: 199.2465 deg

Mean anomaly: 334.1052 deg

Mean motion: 12.48791103 rev/day

Mean motion (dot): 0.00000641 rev/day2

B* drag term: 0.0045758918 1/REarth

Two-line elements (TLE)

Creation date: Dec. 14, 2025, 3:07 a.m.

Reference frame: TEME

Reference center: EARTH

Epoch: Dec. 13, 2025, 4:52 p.m. UTC

TLE line 0: 0 DELTA 1 DEB

TLE line 1: 1 10870U 76077CY 25347.70334730 .00000641 00000-0 45759-2 0 9994

TLE line 2: 2 10870 101.7175 328.7831 0009356 199.2465 334.1052 12.48791103240708

Live tracking on map

Real-time ground track for satellite DELTA 1 DEB.

In-orbit conjunctions

A list of the most updated potential collisions computed for object DELTA 1 DEB.

Target Orbit TCA Probability of collision Miss distance Type
COSMOS 2065 LEO 2025-11-26 15:47:22 0.002080322 76.0 (m) PAYLOAD
COSMOS 1057 LEO 2025-07-14 21:34:15 0.0003464643 49.0 (m) PAYLOAD
DELTA 1 DEB SSO 2025-03-04 05:02:08 0.000143686 196.0 (m) DEBRIS
COSMOS 417 LEO 2024-07-11 03:59:39 0.0002161769 206.0 (m) PAYLOAD
COSMOS 716 LEO 2024-05-31 23:24:05 0.0001448637 165.0 (m) PAYLOAD

Associated space launch

Meteorological satellite using radiometric imaging

DELTA 1 DEB was lifted into orbit during the mission ‘Delta 2310 | NOAA 5’, on board a Delta 2310 space rocket.

The launch took place on July 29, 1976, 5:07 p.m. from Space Launch Complex 2W.

For more information about the launch, click the button.

Launch to space Delta 2310 | NOAA 5
Delta 2310 | NOAA 5

Agency: N/A

Status: Launch Successful

Launch date: July 29, 1976, 5:07 p.m. UTC

Rocket: Delta 2310

Launch pad: Space Launch Complex 2W

Location: Vandenberg SFB, CA, USA

...

Latest news about this satellite

There are no fresh news available about this satellite. Check back as we update our databases every day.


Newsletter sign-up

Weekly statistics, charts and insights to help you stay on top of the space industry.